Wind_Speed
31 26 23 22 23 24 25 25 23 20 20 21 22 22 21 19 17 16 15 14 14 14 14 14 15 15 15 15 16 16 16 17 17 18 17 16 16 15 15 15 15 15 14 14
35 31 27 25 24 23 24 25 25 23 21 22 24 24 23 21 19 19 18 15 15 15 15 15 15 16 16 16 17 17 17 18 19 19 19 17 17 17 16 15 15 16 15 15
35 33 31 30 26 24 24 24 24 24 24 24 25 26 25 23 21 21 20 16 16 16 16 16 16 17 17 18 18 18 18 19 20 20 19 18 18 18 18 16 16 16 17 16
34 33 34 31 27 25 24 24 24 25 27 27 26 27 27 25 23 21 20 18 18 18 17 17 18 18 18 19 19 19 19 20 20 20 19 19 19 19 18 17 17 18 18 17
34 33 32 29 29 27 27 27 28 28 30 29 29 28 28 25 24 22 21 21 20 19 19 18 19 19 19 19 20 20 21 21 22 21 20 19 19 20 19 18 18 18 18 18
35 33 31 29 27 27 29 31 31 31 31 30 29 29 27 25 23 22 22 21 21 21 20 20 20 20 20 20 21 21 22 22 22 21 20 20 20 20 20 20 20 19 19 19
35 33 31 30 29 29 31 33 32 32 33 32 31 30 27 25 24 23 22 22 22 23 22 21 21 21 22 22 22 23 23 23 22 21 21 20 20 20 21 21 21 20 20 20
35 33 33 32 32 33 34 33 32 31 32 32 32 31 29 27 25 24 23 23 23 23 23 23 23 23 23 24 24 24 24 23 22 22 21 21 21 21 21 22 22 21 21 20
36 37 36 35 35 35 34 33 33 32 31 30 30 30 29 28 27 26 25 25 25 25 25 24 24 25 25 24 24 24 23 23 22 22 22 22 22 22 22 22 22 22 21 21
37 39 38 37 36 35 35 34 34 33 31 29 29 29 28 28 28 27 26 26 26 26 26 26 26 25 25 25 24 24 24 24 23 23 24 24 23 23 22 22 23 22 22 23
40 40 39 38 37 36 35 34 34 34 32 31 30 29 28 28 29 28 28 27 27 27 27 26 26 26 26 26 25 25 25 25 25 25 25 25 25 24 24 24 24 24 23 23
41 40 40 39 37 36 36 35 35 35 34 32 31 30 29 29 29 29 28 28 28 28 28 28 27 27 27 27 27 26 26 26 26 27 27 26 26 26 26 26 26 26 25 25
41 40 40 40 39 37 36 35 34 34 33 31 31 31 30 30 29 29 29 29 28 29 29 29 29 28 28 28 28 27 27 27 27 27 27 27 28 28 28 28 28 27 27 27
40 40 41 41 40 39 37 35 35 34 34 33 32 33 32 32 31 31 31 30 30 29 30 30 29 29 29 29 28 28 28 28 28 28 28 29 29 29 29 29 28 28 28 29
40 40 41 41 40 39 37 36 35 35 34 34 34 35 35 34 33 32 32 32 31 30 30 31 31 31 30 29 29 29 29 29 29 29 29 30 30 30 30 29 29 29 29 30
38 40 40 40 40 40 39 37 36 35 34 35 35 35 35 35 34 33 33 33 32 32 31 32 32 32 31 31 31 30 30 30 30 30 30 31 30 30 30 29 29 30 30 30
35 37 38 39 40 41 40 39 38 36 35 36 37 36 36 36 35 35 34 34 34 33 33 32 33 33 33 33 33 33 32 32 32 32 32 31 31 30 30 30 30 30 30 31
34 36 37 38 38 39 40 40 40 39 37 37 37 37 37 37 37 36 35 35 35 35 34 34 34 34 34 34 34 34 33 34 33 33 32 31 31 30 30 30 31 30 30 31
34 36 36 37 37 38 38 39 39 39 38 38 38 37 36 36 36 37 37 37 36 36 35 35 36 36 36 36 35 35 35 34 34 32 31 31 31 31 31 31 31 31 31 32
34 35 36 36 36 37 38 38 39 39 38 38 38 38 37 37 36 37 37 37 37 37 36 37 37 36 36 36 35 35 35 34 33 33 33 32 32 32 32 32 32 32 32 32
33 33 34 34 36 37 37 37 37 37 37 37 37 38 37 37 37 37 37 37 37 37 37 36 36 36 36 35 35 34 34 33 33 33 33 33 33 33 33 33 33 33 33 32
31 32 32 33 33 34 34 35 36 37 37 37 36 37 37 37 37 37 37 37 37 36 36 36 35 34 34 34 34 35 34 34 33 33 33 33 33 33 33 33 33 33 32 32
29 30 31 32 32 33 34 35 37 38 38 37 37 37 37 37 36 35 36 36 37 37 35 34 34 34 34 35 35 35 34 34 34 33 33 32 32 32 33 33 33 33 33 33
25 26 28 30 31 32 33 34 35 36 37 38 38 38 37 37 37 37 36 36 36 37 36 35 35 35 35 35 35 34 34 34 34 34 34 33 33 33 33 33 33 32 33 33
24 26 27 28 29 30 31 32 34 35 36 36 36 36 37 37 37 36 35 35 35 35 34 34 34 34 34 34 34 34 34 34 34 34 34 34 34 34 34 34 33 33 34 34
22 22 24 26 27 27 28 29 30 32 32 33 32 33 33 34 34 33 33 33 33 33 33 32 32 32 33 33 33 33 33 33 33 33 34 34 34 34 34 33 33 33 34 35
20 21 22 23 25 25 26 26 27 29 30 31 31 32 32 32 32 33 33 33 32 32 31 31 31 31 31 31 31 31 31 32 32 32 31 31 31 32 32 33 34 34 34 34
Wind_Direction
215 214 221 230 234 232 228 224 228 236 242 251 258 262 265 267 270 275 277 279 283 288 296 306 312 316 321 325 328 328 329 331 333 332 331 330 330 331 333 333 328 324 320 317
219 215 218 224 230 232 231 228 227 229 237 247 255 257 260 265 270 274 274 275 277 280 288 299 306 312 315 318 321 323 324 325 327 328 328 328 329 329 329 330 330 329 327 324
223 220 222 225 225 229 232 231 228 230 236 243 253 257 258 261 265 271 271 271 273 275 282 290 298 305 311 313 315 318 320 321 323 324 326 326 324 325 325 327 328 327 325 324
225 223 226 226 225 228 230 231 230 229 236 242 248 253 258 260 261 264 267 268 270 273 279 285 294 301 304 307 310 313 317 319 320 320 320 322 321 321 323 323 325 324 321 320
224 226 229 227 225 223 224 227 226 226 232 238 245 252 255 256 257 260 262 264 267 271 276 282 289 296 301 303 307 310 313 314 315 315 315 317 318 320 320 321 323 323 320 318
223 223 226 229 228 225 224 228 229 229 233 237 242 250 253 254 256 257 260 262 266 271 275 279 285 292 298 302 304 307 309 310 311 311 312 313 315 316 319 320 320 320 318 317
223 223 225 224 223 225 226 228 231 232 234 237 242 249 254 256 256 256 259 263 267 269 272 275 281 287 294 298 301 304 305 305 306 307 309 311 312 314 317 318 318 318 317 316
220 220 225 224 226 225 228 230 233 236 237 239 243 246 250 255 257 258 259 262 264 265 268 273 279 284 291 294 296 299 300 301 303 303 305 307 311 312 315 316 316 316 315 314
220 219 223 227 230 230 232 233 234 238 240 242 243 247 251 252 255 258 258 260 261 263 266 271 277 282 286 289 291 295 298 300 301 303 303 305 307 310 312 312 313 313 312 312
221 222 222 226 230 232 233 235 237 240 241 242 244 247 249 251 253 255 258 259 260 262 265 270 275 280 284 286 289 294 297 298 298 299 302 303 304 306 309 311 312 312 311 310
223 224 225 227 231 233 235 235 237 240 241 242 244 247 249 251 252 253 255 257 259 261 264 269 274 277 281 283 286 290 293 295 297 297 298 301 301 304 306 308 310 311 310 311
223 223 225 228 232 234 236 237 237 239 241 244 245 246 248 250 251 252 254 257 258 261 264 268 272 276 278 280 283 287 290 291 295 296 299 300 300 301 302 305 307 307 308 308
228 229 230 233 234 236 238 239 239 241 242 243 245 246 247 248 250 252 254 256 259 261 263 266 269 273 276 279 280 284 287 290 293 295 297 298 298 298 300 302 303 304 306 306
231 232 232 234 236 239 241 241 241 241 243 244 245 245 246 248 250 252 255 257 259 261 262 264 267 271 274 276 279 282 284 287 290 292 294 296 296 297 297 300 301 302 303 304
231 233 233 235 237 239 240 239 241 242 243 244 245 245 246 248 250 251 254 256 257 259 261 263 265 268 272 275 277 280 283 286 288 290 293 294 295 296 296 297 299 301 301 302
232 233 234 235 237 239 239 239 240 241 242 244 245 244 246 248 249 251 253 255 256 258 260 262 265 267 269 273 277 280 282 284 286 288 291 293 294 295 296 297 298 298 299 300
234 234 235 236 237 238 240 241 242 243 244 245 245 245 246 247 248 250 253 255 257 259 260 262 264 266 269 272 275 278 281 284 286 288 289 290 292 293 294 295 296 297 299 299
234 233 235 236 238 239 241 242 243 244 245 245 246 246 246 247 248 251 253 255 257 258 260 262 264 266 269 272 275 276 279 282 284 287 288 289 290 290 292 295 296 297 298 299
236 235 236 237 238 239 240 241 242 243 245 245 246 248 248 248 249 250 252 255 256 258 259 261 264 266 268 271 273 275 278 280 282 285 286 287 288 289 291 294 296 296 297 298
236 236 237 238 239 240 240 241 243 244 245 246 247 248 249 250 251 251 252 254 256 258 260 261 263 265 268 271 273 275 277 278 281 283 284 285 287 288 289 291 294 296 296 296
241 239 239 240 241 241 240 241 242 244 245 246 246 247 248 250 252 253 254 255 257 259 261 263 264 265 268 269 271 274 275 277 279 282 283 284 286 288 289 290 292 293 294 294
243 242 241 241 241 241 243 243 243 243 244 244 244 245 247 251 253 254 255 256 257 258 260 262 264 266 267 269 270 272 274 276 278 280 283 284 284 286 288 290 291 292 293 293
245 243 242 243 243 244 244 244 244 244 245 245 245 246 248 250 253 255 256 256 257 259 260 262 265 266 266 268 270 270 272 274 277 280 282 283 284 286 288 289 289 290 291 292
244 243 242 243 244 244 244 243 244 245 245 246 247 248 249 250 252 255 257 258 258 258 259 261 264 266 268 269 270 270 270 273 276 278 280 282 282 284 287 288 289 290 291 292
244 244 244 244 244 244 244 243 243 244 245 246 247 249 249 250 252 253 255 257 259 260 260 262 264 266 268 269 271 271 272 273 275 276 277 279 281 283 285 287 287 288 290 292
248 246 245 246 247 247 247 247 246 244 244 245 247 249 249 249 252 255 256 257 258 261 263 265 267 267 268 269 269 270 271 272 273 275 278 280 282 283 284 286 286 287 289 291
251 249 248 249 250 249 248 249 247 243 244 247 248 249 251 252 254 254 255 257 259 261 262 263 265 267 268 268 269 270 272 273 275 277 279 280 281 282 283 283 286 289 291 292
Height
5882 5888 5892 5895 5898 5901 5905 5908 5913 5916 5917 5915 5913 5913 5913 5914 5915 5915 5916 5916 5915 5915 5914 5914 5913 5912 5911 5909 5908 5906 5904 5902 5900 5897 5895 5894 5891 5889 5888 5886 5884 5882 5881 5879
5875 5881 5885 5889 5893 5896 5899 5903 5907 5910 5911 5910 5909 5909 5909 5910 5911 5912 5912 5912 5912 5912 5912 5911 5910 5909 5908 5907 5906 5904 5902 5900 5898 5896 5893 5891 5890 5888 5886 5884 5882 5881 5879 5877
5868 5874 5878 5882 5887 5891 5894 5897 5901 5904 5906 5904 5904 5904 5904 5906 5908 5908 5907 5908 5909 5909 5909 5908 5908 5907 5906 5904 5903 5901 5900 5898 5896 5893 5891 5889 5888 5886 5884 5882 5880 5878 5877 5875
5862 5867 5870 5877 5882 5886 5889 5892 5895 5897 5898 5898 5899 5899 5899 5902 5903 5904 5904 5904 5905 5905 5906 5905 5905 5904 5903 5902 5900 5899 5897 5895 5893 5891 5889 5887 5885 5883 5881 5880 5878 5876 5874 5872
5855 5859 5864 5870 5874 5878 5882 5884 5886 5889 5890 5892 5893 5893 5893 5896 5898 5899 5900 5901 5901 5901 5901 5902 5901 5900 5899 5898 5897 5895 5894 5892 5890 5888 5886 5884 5882 5880 5878 5876 5875 5873 5871 5869
5847 5852 5857 5863 5867 5871 5875 5877 5879 5881 5883 5886 5888 5888 5886 5889 5892 5893 5895 5895 5895 5896 5897 5897 5897 5896 5896 5894 5893 5892 5890 5888 5887 5885 5883 5881 5879 5877 5875 5873 5871 5869 5867 5865
5839 5845 5850 5855 5858 5863 5867 5868 5871 5874 5877 5879 5882 5883 5883 5883 5886 5888 5890 5891 5891 5892 5892 5893 5892 5892 5891 5890 5889 5887 5886 5884 5883 5881 5879 5877 5876 5874 5872 5870 5868 5866 5864 5861
5833 5838 5844 5846 5850 5853 5856 5860 5863 5866 5870 5873 5875 5877 5878 5879 5881 5882 5885 5886 5886 5887 5887 5887 5887 5887 5886 5885 5884 5883 5882 5880 5879 5877 5875 5873 5872 5870 5868 5866 5864 5862 5859 5857
5825 5830 5833 5837 5841 5845 5849 5852 5856 5860 5863 5865 5867 5869 5872 5874 5875 5877 5878 5880 5880 5881 5882 5882 5882 5882 5881 5880 5879 5878 5877 5875 5874 5872 5871 5869 5867 5865 5863 5861 5859 5857 5855 5853
5816 5820 5825 5829 5833 5837 5841 5845 5849 5853 5856 5858 5860 5862 5865 5867 5869 5870 5872 5873 5874 5875 5876 5876 5877 5876 5876 5875 5874 5873 5872 5870 5869 5867 5866 5864 5863 5861 5859 5857 5855 5853 5850 5848
5807 5812 5817 5820 5825 5829 5834 5838 5841 5845 5848 5850 5853 5855 5858 5860 5862 5864 5865 5866 5867 5869 5869 5870 5870 5871 5870 5869 5868 5867 5866 5865 5864 5862 5860 5859 5857 5856 5854 5852 5850 5848 5845 5843
5797 5802 5809 5814 5817 5821 5826 5830 5833 5837 5840 5843 5846 5848 5850 5853 5855 5856 5858 5860 5861 5862 5863 5864 5864 5864 5864 5863 5862 5861 5860 5859 5858 5857 5855 5853 5851 5850 5848 5846 5844 5842 5840 5838
5791 5796 5801 5806 5810 5813 5817 5821 5825 5829 5832 5835 5838 5840 5843 5845 5847 5849 5851 5852 5853 5854 5855 5856 5857 5857 5857 5856 5856 5855 5854 5853 5852 5850 5849 5847 5845 5844 5842 5840 5838 5835 5833 5831
5784 5789 5794 5798 5802 5806 5809 5813 5817 5821 5824 5827 5830 5832 5835 5837 5839 5841 5843 5844 5845 5847 5848 5849 5849 5850 5850 5849 5849 5848 5847 5846 5845 5843 5842 5840 5839 5837 5835 5833 5831 5829 5826 5824
5777 5781 5785 5790 5794 5798 5802 5806 5808 5812 5816 5818 5821 5824 5826 5829 5831 5833 5835 5836 5837 5839 5840 5841 5841 5842 5842 5842 5841 5841 5840 5839 5837 5836 5834 5833 5831 5829 5827 5825 5823 5821 5819 5817
5768 5772 5777 5781 5785 5789 5792 5796 5799 5803 5807 5809 5812 5815 5818 5820 5822 5824 5826 5828 5829 5830 5831 5832 5833 5834 5834 5834 5833 5833 5832 5831 5829 5828 5827 5825 5823 5821 5819 5818 5816 5814 5812 5809
5759 5763 5768 5772 5776 5780 5783 5787 5791 5794 5798 5801 5803 5806 5809 5811 5813 5815 5817 5819 5820 5822 5823 5824 5825 5825 5825 5825 5825 5824 5824 5823 5821 5820 5818 5816 5815 5813 5811 5810 5808 5806 5804 5802
5752 5756 5759 5763 5767 5770 5774 5778 5782 5785 5788 5790 5793 5796 5798 5801 5804 5806 5808 5810 5811 5813 5814 5815 5816 5816 5816 5816 5816 5815 5815 5814 5812 5811 5810 5808 5806 5805 5804 5802 5800 5798 5796 5794
5744 5747 5751 5754 5758 5761 5765 5768 5771 5774 5778 5781 5784 5786 5788 5791 5794 5796 5798 5800 5801 5803 5804 5805 5806 5807 5807 5807 5806 5806 5806 5805 5804 5802 5801 5800 5798 5797 5795 5794 5792 5790 5788 5785
5735 5739 5742 5746 5749 5752 5755 5759 5762 5765 5768 5771 5774 5777 5779 5782 5784 5786 5788 5790 5792 5793 5795 5796 5796 5797 5797 5797 5797 5797 5796 5795 5795 5794 5792 5791 5790 5788 5787 5785 5783 5781 5779 5777
5727 5730 5733 5736 5740 5743 5746 5749 5752 5755 5759 5762 5764 5767 5770 5772 5774 5776 5778 5780 5782 5783 5784 5785 5786 5787 5788 5787 5787 5787 5787 5786 5786 5784 5783 5782 5781 5780 5778 5776 5775 5773 5771 5769
5719 5722 5725 5728 5730 5733 5736 5739 5743 5746 5749 5752 5754 5757 5760 5762 5764 5766 5768 5770 5772 5773 5774 5775 5776 5777 5777 5777 5777 5777 5777 5777 5776 5775 5774 5773 5772 5771 5769 5768 5766 5764 5762 5760
5711 5713 5716 5719 5722 5724 5727 5730 5733 5736 5739 5742 5745 5747 5750 5752 5754 5756 5758 5760 5762 5764 5764 5765 5766 5767 5767 5767 5767 5767 5767 5767 5766 5766 5765 5764 5763 5762 5760 5759 5757 5755 5754 5751
5703 5705 5708 5711 5713 5716 5718 5721 5724 5726 5729 5732 5735 5738 5740 5742 5744 5746 5748 5750 5752 5754 5755 5756 5757 5757 5758 5758 5757 5757 5757 5757 5757 5756 5756 5755 5754 5753 5751 5750 5748 5746 5745 5743
5697 5699 5701 5703 5705 5708 5710 5713 5715 5717 5720 5723 5726 5728 5731 5733 5735 5737 5739 5741 5743 5744 5745 5746 5747 5747 5748 5748 5748 5748 5748 5747 5747 5747 5746 5745 5744 5743 5742 5741 5739 5737 5736 5734
5691 5693 5695 5696 5698 5700 5702 5704 5706 5709 5711 5714 5717 5719 5721 5723 5725 5728 5730 5731 5733 5734 5735 5736 5737 5737 5738 5738 5738 5738 5738 5738 5737 5737 5736 5736 5735 5734 5732 5731 5730 5728 5726 5724
5686 5687 5689 5690 5691 5693 5695 5697 5698 5700 5703 5705 5708 5710 5713 5715 5717 5719 5720 5722 5724 5725 5726 5727 5728 5728 5728 5728 5728 5728 5729 5728 5728 5728 5727 5726 5725 5724 5723 5722 5720 5718 5716 5714